BREEZE-M R/B, 42935

Orbit data source: Space-Track

BREEZE-M R/B, 42935 is space debris in HEO originally from a launch on Mon, 11 Sep 2017 UTC launched from the Tyuratam Missile And Space Complex (TTMTR). Debris objects in space refer to the collection of defunct objects orbiting the Earth. Examples of debris include non-operational satellites, rocket bodies, and fragments generated from explosions, collisions, or faulty payload assembly.

Loading next visibility...
Identifier
42935, 2017-053B
Orbit
HEO
Country
Flag of CISCIS
Related business
Manufacturer
Khrunichev
Mission
Spacecraft
Bus & Motor
BRIZ, Unknown motor
Mass
~1,600 kg wet, 1,600 kg dry
Launch date (UTC)
2017-09-11 (8 years ago)
Launch vehicle
Unknown
Launch site
Tyuratam Missile And Space Complex (TTMTR)
Object type
Payload
Rocket body
Debris
Shape & HBR
Cyl, 2.0 m
Radar Cross Section
14.451 m², Large (>1 m²)

Expand to show TLE details & history
Last TLE update: 1 day ago

TLE from 1 day ago
0 BREEZE-M R/B
1 42935U 17053B   25259.98635187 -.00000192  00000-0  00000-0 0  9992
2 42935  23.0458 104.0993 5902834 236.5030  53.0105  2.19135764 64162
Epoch: 2025-09-16T23:40Z
TLE epoch observation values (Epoch: 2025-09-16T23:40:20.801Z)
Latitude
Longitude
112.92208°
Altitude
17,812.241 km
Speed
4.127 km/s
True Right ascension
06h 56m 42s
True Declination
0° 00' 00"
Sunlit
Object was in daylight at epoch
Visualization orbit readout
Latitude
Unknown
Longitude
Unknown
Altitude
Unknown
Speed
Unknown
Apparent Right ascension
Unknown
Apparent Declination
Unknown
Sunlit
N/A
Visualization observer readout
Local Sidereal Time
17:02:01
Azimuth
Unknown
Elevation
Unknown
Doppler factor
Unknown
Orbital elements
Apogee altitude
33,442.891 km
Perigee altitude
3,881.252 km
Semi-major axis
25,040.209 km
Eccentricity
0.59028
Inclination
23.0458°
RAAN
104.0993°
Arg. of periapsis
236.503°
True anomaly
123.53202°
Mean anomaly
53.0105°
Eccentric anomaly
86.77778°
Mean motion
0.54775 °/min
Orbital period
657.23 mins
BSTAR
0
Loading maneuver chart data...
Computing Atmospheric mass density...
Loading historical data...
Loading historical data...
Loading historical data...
Loading historical data...
Loading historical data...
Loading historical data...
Loading historical data...
Other satellites on launch #53 in the year 2017 (2017-09-11 UTC)

Documentation

Showing up to 5 results
|